This is the latest recevied weather packets stored in our database for station/object NC4M. If no packets are shown the sender has not sent any weather packets the latest 10 day(s).
| Time | Temp. | Humidity | Pressure | Rain* | Wind** | Luminosity | Snow |
|---|---|---|---|---|---|---|---|
| 1787870326 | 27.22° C | 54% | 1018 hPa | 0 mm | - | 72 W/m² | - |
| 1787870021 | 27.78° C | 56% | 1018 hPa | 0 mm | - | 71 W/m² | - |
| 1787869720 | 27.22° C | 54% | 1018.1 hPa | 0 mm | - | 91 W/m² | - |
| 1787869419 | 27.22° C | 53% | 1017.9 hPa | 0 mm | - | 102 W/m² | - |
| 1787869114 | 27.22° C | 56% | 1017.8 hPa | 0 mm | - | 80 W/m² | - |
| 1787868813 | 27.78° C | 55% | 1017.9 hPa | 0 mm | - | 60 W/m² | - |
| 1787868512 | 28.33° C | 54% | 1018 hPa | 0 mm | - | 75 W/m² | - |
| 1787868211 | 28.89° C | 52% | 1018 hPa | 0 mm | - | 59 W/m² | - |
| 1787867907 | 29.44° C | 53% | 1017.7 hPa | 0 mm | - | 329 W/m² | - |
| 1787867603 | 28.89° C | 49% | 1017.9 hPa | 0 mm | - | 398 W/m² | - |
| 1787867302 | 29.44° C | 51% | 1017.8 hPa | 0 mm | - | 431 W/m² | - |
| 1787866999 | 29.44° C | 51% | 1017.8 hPa | 0 mm | - | 429 W/m² | - |
| 1787866694 | 29.44° C | 52% | 1017.8 hPa | 0 mm | - | 456 W/m² | - |
| 1787866392 | 28.89° C | 51% | 1017.8 hPa | 0 mm | - | 478 W/m² | - |
| 1787866087 | 29.44° C | 51% | 1018 hPa | 0 mm | - | 502 W/m² | - |
| 1787865782 | 30.56° C | 49% | 1018 hPa | 0 mm | - | 323 W/m² | - |
| 1787865477 | 30° C | 52% | 1017.8 hPa | 0 mm | - | 574 W/m² | - |
| 1787865171 | 29.44° C | 49% | 1017.8 hPa | 0 mm | - | 558 W/m² | - |
| 1787864868 | 30° C | 49% | 1017.9 hPa | 0 mm | - | 581 W/m² | - |
| 1787864568 | 30° C | 48% | 1017.9 hPa | 0 mm | - | 590 W/m² | - |
| 1787864263 | 30° C | 48% | 1017.9 hPa | 0 mm | - | 606 W/m² | - |
| 1787863957 | 29.44° C | 48% | 1018.2 hPa | 0 mm | - | 620 W/m² | - |
| 1787863656 | 29.44° C | 50% | 1018 hPa | 0 mm | - | 638 W/m² | - |
| 1787863354 | 28.89° C | 52% | 1018.1 hPa | 0 mm | - | 657 W/m² | - |
| 1787863051 | 28.89° C | 52% | 1018 hPa | 0 mm | - | 661 W/m² | - |
* Rain latest hour (hover to see other rain measurements)
** Current wind speed in m/s (hover to see current wind gust speed)